カタログに戻る

ARIANE 5 R/B

運用中HEO
NORAD 33057·ROCKET BODY·🇫🇷 France

打ち上げ Jun 12, 2008 から Guiana Space Centre

Loading…

次のパス (今後24時間)

TLE

最新Source: Space-Track

元期: Sep 14, 2026, 04:24 UTC

1 33057U 08030C   26257.18354205  .00002164  00000-0  63022-3 0  9998
2 33057   1.7683 325.3317 7017188 348.9862   1.5419  2.61438453161555

AllMySatでARIANE 5 R/Bをリアルタイム追跡

Download on the App Store